EW9994 Weather Reports


time (UTC)temp
C
wind
direction
speed
KPH
gust
KPH
rain 1hr
cm
rain 24hr
cm
rain mn
cm
humidity
%
barometer
mb
20260503004406 11 29 3.2 8.0 0.00 0.00 0.00 75 1021.4
20260503001906 11 29 3.2 9.7 0.00 0.00 0.00 74 1021.6
20260503001405 11 29 9.7 12.9 0.00 0.00 0.00 74 1021.6
20260503000905 11 29 4.8 9.7 0.00 0.00 0.00 74 1021.6
20260503000407 11 29 3.2 12.9 0.00 0.00 0.00 74 1021.7
20260502230906 12 30 4.8 9.7 0.00 0.00 0.00 72 1021.9
20260502230405 12 30 6.4 12.9 0.00 0.00 0.00 72 1022.0
20260502221406 12 30 8.0 12.9 0.00 0.00 0.00 70 1022.0
20260502220406 12 30 8.0 14.5 0.00 0.00 0.00 70 1021.9
20260502211908 13 30 8.0 9.7 0.00 0.00 0.00 67 1021.9
20260502211406 13 30 9.7 11.3 0.00 0.00 0.00 66 1021.8
20260502210905 14 30 3.2 11.3 0.00 0.00 0.00 65 1021.8
20260502204405 14 30 4.8 12.9 0.00 0.00 0.00 66 1021.6
20260502203408 14 33 11.3 14.5 0.00 0.00 0.00 66 1021.6
20260502201906 14 30 6.4 12.9 0.00 0.00 0.00 66 1021.8
20260502201405 14 30 4.8 11.3 0.00 0.00 0.00 65 1021.8
20260502200405 15 30 9.7 12.9 0.00 0.00 0.00 65 1021.8
20260502194905 15 30 6.4 9.7 0.00 0.00 0.00 63 1021.7
20260502193406 15 30 3.2 4.8 0.00 0.00 0.00 62 1021.6
20260502184406 17 29 8.0 11.3 0.00 0.00 0.00 59 1021.1
20260502183906 17 29 8.0 11.3 0.00 0.00 0.00 59 1021.0
20260502181406 17 29 9.7 12.9 0.00 0.00 0.00 58 1020.8
20260502170407 22 248 4.8 12.9 0.00 0.00 0.00 41 1020.6
20260502163406 23 251 8.0 19.3 0.00 0.00 0.00 39 1020.7
20260502161407 23 234 6.4 11.3 0.00 0.00 0.00 39 1020.6
20260502160906 23 237 8.0 12.9 0.00 0.00 0.00 39 1020.7
20260502151907 23 253 8.0 19.3 0.00 0.00 0.00 36 1021.1
20260502123406 23 166 8.0 12.9 0.00 0.00 0.00 36 1023.0
20260502114906 22 241 4.8 11.3 0.00 0.00 0.00 36 1023.6
20260502114406 23 246 3.2 8.0 0.00 0.00 0.00 38 1023.8
20260502113907 22 246 3.2 8.0 0.00 0.00 0.00 35 1023.8
20260502113406 22 209 8.0 19.3 0.00 0.00 0.00 36 1023.9
20260502111408 22 177 9.7 19.3 0.00 0.00 0.00 37 1024.2
20260502110406 21 88 8.0 14.5 0.00 0.00 0.00 36 1024.3
20260502103406 21 267 3.2 16.1 0.00 0.00 0.00 38 1024.7
20260502101406 21 228 3.2 11.3 0.00 0.00 0.00 38 1025.0
20260502100906 21 186 16.1 24.1 0.00 0.00 0.00 38 1025.1
20260502100406 20 261 12.9 19.3 0.00 0.00 0.00 39 1025.2
20260502091406 20 224 1.6 11.3 0.00 0.00 0.00 39 1025.5
20260502090907 20 219 6.4 11.3 0.00 0.00 0.00 42 1025.6
20260502070906 15 34 3.2 4.8 0.00 0.00 0.00 57 1026.2
20260502070406 15 34 3.2 4.8 0.00 0.00 0.00 57 1026.2
20260502064906 14 34 1.6 3.2 0.00 0.00 0.00 58 1026.4
20260502063405 13 34 3.2 4.8 0.00 0.00 0.00 58 1026.5
20260502061905 13 33 3.2 4.8 0.00 0.00 0.00 62 1026.4
20260502060906 12 33 0.0 3.2 0.00 0.00 0.00 61 1026.3
20260502054906 11 33 0.0 1.6 0.00 0.00 0.00 64 1026.4
20260502054406 11 33 1.6 3.2 0.00 0.00 0.00 63 1026.4
20260502053906 11 33 0.0 1.6 0.00 0.00 0.00 65 1026.4
20260502051906 10 33 4.8 8.0 0.00 0.00 0.00 61 1026.3
20260502050906 10 32 3.2 8.0 0.00 0.00 0.00 60 1026.2
20260502050405 11 31 8.0 12.9 0.00 0.00 0.00 60 1026.2
20260502044906 10 36 9.7 12.9 0.00 0.00 0.00 58 1026.2
20260502041906 10 51 4.8 4.8 0.00 0.00 0.00 61 1026.2
20260502040906 10 51 4.8 8.0 0.00 0.00 0.00 59 1026.1
20260502033406 10 50 3.2 11.3 0.00 0.00 0.00 61 1026.0
20260502030405 10 44 6.4 8.0 0.00 0.00 0.00 61 1026.1
20260502024906 10 20 4.8 11.3 0.00 0.00 0.00 60 1026.3
20260502024405 9 33 4.8 9.7 0.00 0.00 0.00 61 1026.3
20260502023906 10 33 8.0 8.0 0.00 0.00 0.00 60 1026.3
20260502023405 9 33 4.8 8.0 0.00 0.00 0.00 61 1026.3
20260502020906 10 32 6.4 9.7 0.00 0.00 0.00 59 1026.4
20260502020406 10 32 4.8 12.9 0.00 0.00 0.00 58 1026.4
20260502014906 10 73 4.8 8.0 0.00 0.00 0.00 56 1026.4
20260502014406 10 74 1.6 4.8 0.00 0.00 0.00 56 1026.3
20260502013906 10 73 1.6 8.0 0.00 0.00 0.00 55 1026.4
20260502010906 11 32 8.0 14.5 0.00 0.00 0.00 53 1026.3
20260502010407 10 28 9.7 12.9 0.00 0.00 0.00 54 1026.4